Simultaneous Nadir Overpasses (SNOs) Predictions

Prediction of SNOs between METOP-A and NOAA-19 Satellite Orbit:

Table of predicted SNOs for the next 14.0 days since TLE Epoch: 12/20/2019
Index Date (METOP-A) Time (METOP-A) Lat,Lon (METOP-A) SZA (METOP-A ) Date (NOAA-19) Time (NOAA-19) Lat,Lon (NOAA-19) SZA (NOAA-19 ) Distance(km) Time Diff (sec)
1 12/31/2019 02:07:10 80.21, 161.56 103.51 12/31/2019 02:06:14 80.19, 161.64 103.49 2.65 56
2 12/31/2019 02:57:52 -80.20, -31.25 76.52 12/31/2019 02:57:09 -80.19, -31.09 76.52 3.25 43
3 12/31/2019 03:48:32 80.20, 136.10 103.49 12/31/2019 03:48:15 80.20, 136.05 103.48 0.98 17
4 12/31/2019 04:39:14 -80.19, -56.72 76.54 12/31/2019 04:39:10 -80.20, -56.68 76.52 1.52 4
5 12/31/2019 05:29:54 80.19, 110.64 103.47 12/31/2019 05:30:15 80.19, 110.77 103.47 2.68 21
6 12/31/2019 06:20:35 -80.21, -81.87 76.52 12/31/2019 06:21:10 -80.19, -81.96 76.54 2.70 35
7 12/31/2019 07:11:16 80.18, 85.17 103.45 12/31/2019 07:12:16 80.19, 85.18 103.47 1.53 60




NCC Satellite Simultaneous Nadir Overpasses (SNOs) Prediction Service
